Location: Bun Machan
(52.1403°N, 7.3744°W)
Time: 08:45:14
(UTC+00:00)

CRYOSAT 2 - Pass Details

Date: 14 July 2020
Orbit: 714 x 725 km, 92.0° (Epoch: 05 August)

Event Time Altitude Azimuth Distance (km) Brightness Sun altitude
Rises 00:22:03 0° 6° (N) 3,134 9.4 -16.2°
Reaches altitude 10° 00:24:23 10° 10° (N) 2,209 8.2 -16.2°
Maximum altitude 00:29:13 64° 92° (E) 792 4.5 -16.2°
Enters shadow 00:31:47 27° 166° (SSE) 1,349 5.2 -16.2°
